Location: Darlington Observatory
(36.4817°N, 105.8156°W)
Time: 04:26:48
(UTC-06:00)

MOS 1 - Visible Passes

Search period start: 06 May 2015 00:00
Search period end: 16 May 2015 00:00
Orbit: 880 x 891 km, 99.2° (Epoch: 05 May)

Date Brightness Start Highest point End Pass type
(mag) Time Alt. Az. Time Alt. Az. Time Alt. Az.
06 May 6.8 05:09:03 10° NE 05:13:14 22° E 05:17:35 10° SE visible
07 May 6.8 05:07:29 10° NE 05:11:34 21° E 05:15:50 10° SE visible
08 May 6.8 05:05:56 10° NE 05:09:54 20° E 05:14:04 10° SE visible
09 May 6.8 05:04:23 10° NE 05:08:14 19° E 05:12:18 10° SE visible
10 May 6.9 05:02:50 10° NE 05:06:34 18° E 05:10:32 10° SE visible
11 May 6.9 05:01:18 10° NE 05:04:55 18° E 05:08:46 10° SE visible
12 May 6.9 04:59:46 10° NE 05:03:15 17° E 05:06:59 10° SE visible
13 May 6.9 04:58:15 10° NE 05:01:35 16° E 05:05:11 10° SE visible
14 May 6.9 04:56:44 10° NE 04:59:55 16° E 05:03:23 10° SE visible
15 May 7.0 04:55:14 10° ENE 04:58:15 15° E 05:01:34 10° SE visible
